Regional Weather Roundup
Issued by NWS

Home | Current Version | Previous Version | Graphics & Text | Print | Product List | Glossary On
Versions: 1 2 3 4 5 6 7 8 9 10 11 12 13 14 15 16 17 18 19 20 21 22 23 24 25 26 27 28 29 30 31 32 33 34 35 36 37 38 39 40 41 42 43 44 45 46 47 48 49 50
728
ASUS43 KMKX 230021
RWRWI

WISCONSIN REGIONAL WEATHER ROUNDUP
NATIONAL WEATHER SERVICE MILWAUKEE/SULLIVAN WI
700 PM CDT MON MAY 22 2017

NOTE: "FAIR" INDICATES FEW OR NO CLOUDS BELOW 12,000 FEET WITH NO
SIGNIFICANT WEATHER AND/OR OBSTRUCTIONS TO VISIBILITY.

WIZ001-002-006>008-014>016-023>028-230100-
NORTHWEST WISCONSIN

CITY           SKY/WX    TMP DP  RH WIND       PRES   REMARKS
SUPERIOR ARPT  NOT AVBL
ASHLAND        CLOUDY    54  44  69 SW7       29.82S
6HR MIN TEMP:  50; 6HR MAX TEMP:  56; 6HR PCP:  0.02;

HAYWARD        CLOUDY    56  42  59 CALM      29.82S
6HR MIN TEMP:  52; 6HR MAX TEMP:  57;

SIREN          CLOUDY    56  41  57 CALM      29.83S
6HR MIN TEMP:  54; 6HR MAX TEMP:  61;

CUMBERLAND     CLOUDY    55  39  54 NW8       29.82S
RICE LAKE      CLOUDY    59  42  52 W5        29.83S
6HR MIN TEMP:  56; 6HR MAX TEMP:  61;

CHETEK         PTSUNNY   59  43  56 N3        29.82S
6HR MIN TEMP:  57; 6HR MAX TEMP:  62;

LADYSMITH      CLOUDY    57  44  60 NW5       29.85R
6HR MIN TEMP:  56; 6HR MAX TEMP:  60;

EAU CLAIRE     CLOUDY    62  44  51 NW5       29.80S
6HR MIN TEMP:  62; 6HR MAX TEMP:  67;

MENOMONIE      CLOUDY    62  44  52 NW5       29.81S
6HR MIN TEMP:  62; 6HR MAX TEMP:  66;

NEW RICHMOND   MOSUNNY   61  39  44 NW5       29.82S
6HR MIN TEMP:  59; 6HR MAX TEMP:  64;

OSCEOLA        CLOUDY    60  43  53 NW6       29.84S
6HR MIN TEMP:  58; 6HR MAX TEMP:  64;

$$

WIZ003>005-009-010-017-018-230100-
NORTH CENTRAL WISCONSIN

CITY           SKY/WX    TMP DP  RH WIND       PRES   REMARKS
MANITOWISH WTR CLOUDY    51  43  74 W6        29.83R
6HR MIN TEMP:  48; 6HR MAX TEMP:  54;

ARBOR VITAE    CLOUDY    55  44  67 NW5       29.82S
6HR MIN TEMP:  52; 6HR MAX TEMP:  57; 6HR PCP:  0.01;

WOODRUFF       CLOUDY    55  44  67 NW5       29.82S
6HR MIN TEMP:  52; 6HR MAX TEMP:  57; 6HR PCP:  0.01;

RHINELANDER    CLOUDY    57  41  55 NW8       29.83R
6HR MIN TEMP:  54; 6HR MAX TEMP:  60; 6HR PCP: TRACE;

EAGLE RIVER    CLOUDY    53  40  61 NW8       29.83R
6HR MIN TEMP:  50; 6HR MAX TEMP:  54;

LAND O LAKES   CLOUDY    52  42  69 W5        29.84R
6HR MIN TEMP:  49; 6HR MAX TEMP:  55; 6HR PCP:  0.02;

PHILLIPS       CLOUDY    55  42  62 CALM      29.82S
6HR MIN TEMP:  52; 6HR MAX TEMP:  57;

TOMAHAWK       CLOUDY    57  40  53 W7        29.83S
6HR MIN TEMP:  53; 6HR MAX TEMP:  59;

MEDFORD        SUNNY     58  42  54 NW9       29.82R
6HR MIN TEMP:  56; 6HR MAX TEMP:  60;

MERRILL        SUNNY     60  42  51 NW9       29.82S
6HR MIN TEMP:  57; 6HR MAX TEMP:  62;

$$

WIZ029-030-035-036-043>047-230100-
CENTRAL WISCONSIN

CITY           SKY/WX    TMP DP  RH WIND       PRES   REMARKS
WAUSAU         MOSUNNY   60  43  53 NW8       29.80S
6HR MIN TEMP:  58; 6HR MAX TEMP:  65;

MOSINEE        PTSUNNY   61  45  55 NW12      29.82S
MARSHFIELD     PTSUNNY   62  45  53 NW7       29.80S
6HR MIN TEMP:  61; 6HR MAX TEMP:  67;

STEVENS POINT  PTSUNNY   63  42  45 NW6       29.81S
6HR MIN TEMP:  61; 6HR MAX TEMP:  66;

WAUPACA        PTSUNNY   69  45  41 SW8       29.80S
6HR MIN TEMP:  67; 6HR MAX TEMP:  72;

WAUTOMA        CLOUDY    66  49  54 SW10      29.81S
6HR MIN TEMP:  65; 6HR MAX TEMP:  71;

WISC RAPIDS    MOSUNNY   67  43  41 NW10      29.81S
6HR MIN TEMP:  65; 6HR MAX TEMP:  70;

CAMP DOUGLAS   PTSUNNY   68  50  52 SW10      29.80S
$$

WIZ011>013-019>022-031-037>040-048>050-230100-
NORTHEAST WISCONSIN

CITY           SKY/WX    TMP DP  RH WIND       PRES   REMARKS
ANTIGO         MOSUNNY   58  44  58 NW8       29.82R
6HR MIN TEMP:  56; 6HR MAX TEMP:  60;

SHAWANO        CLOUDY    66  43  42 W6        29.79S
6HR MIN TEMP:  63; 6HR MAX TEMP:  70;

OCONTO         CLOUDY    65  44  47 NW5       29.79R
6HR MIN TEMP:  61; 6HR MAX TEMP:  68;

STURGEON BAY   CLOUDY    56  50  80 S8        29.79S
6HR MIN TEMP:  54; 6HR MAX TEMP:  67;

GREEN BAY      LGT RAIN  65  51  60 SW10      29.79S
6HR MIN TEMP:  62; 6HR MAX TEMP:  69; 6HR PCP: TRACE;

MANITOWOC      CLOUDY    67  48  50 SW17      29.82S
6HR MIN TEMP:  58; 6HR MAX TEMP:  69;

APPLETON       MOSUNNY   64  45  48 SW18G24   29.79S
CLINTONVILLE   PTSUNNY   64  41  42 W7        29.79S
OSHKOSH        CLOUDY    65  50  58 SW12G20   29.81S
6HR MIN TEMP:  64; 6HR MAX TEMP:  67;

$$

WIZ032>034-041-042-053>061-230100-
SOUTHWEST WISCONSIN

CITY           SKY/WX    TMP DP  RH WIND       PRES   REMARKS
LA CROSSE      SUNNY     69  49  48 W8        29.79S
6HR MIN TEMP:  67; 6HR MAX TEMP:  73;

SPARTA         SUNNY     67  49  51 W6        29.80F
6HR MIN TEMP:  65; 6HR MAX TEMP:  69;

VIROQUA        MOSUNNY   66  48  52 N5        29.81F
6HR MIN TEMP:  61; 6HR MAX TEMP:  68;

BOSCOBEL       CLOUDY    66  51  58 CALM      29.81S
6HR MIN TEMP:  60; 6HR MAX TEMP:  71;

PRAIRIE DU CHI CLOUDY    65  55  70 CALM      29.79F
6HR MIN TEMP:  58; 6HR MAX TEMP:  69;

PLATTEVILLE    CLOUDY    64  61  90 S3        29.83S
6HR MIN TEMP:  61; 6HR MAX TEMP:  68; 6HR PCP:  0.04;

$$

WIZ056-057-062-063-064-067-068-230100-
SOUTH CENTRAL WISCONSIN

CITY           SKY/WX    TMP DP  RH WIND       PRES   REMARKS
REEDSBURG      CLOUDY    64  51  64 S7        29.81F
6HR MIN TEMP:  58; 6HR MAX TEMP:  68;

BARABOO/DELLS  CLOUDY    63  49  61 S7        29.82S
6HR MIN TEMP:  57; 6HR MAX TEMP:  66;

LONE ROCK      CLOUDY    66  52  60 SW3       29.81F
6HR MIN TEMP:  55; 6HR MAX TEMP:  68;

MINERAL POINT  CLOUDY    68  55  64 S3        29.82F
MADISON        CLOUDY    64  53  67 CALM      29.83F
6HR MIN TEMP:  55; 6HR MAX TEMP:  66; 6HR PCP:  0.01;

MIDDLETON      CLOUDY    66  54  64 SW5       29.84F
6HR MIN TEMP:  55; 6HR MAX TEMP:  68;

WATERTOWN      CLOUDY    62  54  75 NE5       29.84S
6HR MIN TEMP:  56; 6HR MAX TEMP:  65; 6HR PCP:  0.03;

MONROE         CLOUDY    59  55  88 SW15      29.85F
JANESVILLE     TSTM      63  59  88 SW15      29.86R FOG
$$

WIZ051-052-058>065-066-070>072-230100-
SOUTHEAST WISCONSIN

CITY           SKY/WX    TMP DP  RH WIND       PRES   REMARKS
MILWAUKEE      PTSUNNY   61  49  64 SE5       29.86S
6HR MIN TEMP:  61; 6HR MAX TEMP:  67; 6HR PCP: TRACE;

WAUKESHA       PTSUNNY   63  50  63 SW14      29.87S
MILWAUKEE/TIMM LGT RAIN  64  46  52 S8        29.86F
RACINE         CLOUDY    67  50  54 SW10      29.87F
6HR MIN TEMP:  62; 6HR MAX TEMP:  69;

KENOSHA        PTSUNNY   68  50  52 SW16G24   29.86F
6HR MIN TEMP:  66; 6HR MAX TEMP:  71;

FOND DU LAC    CLOUDY    64  49  57 SW9G18    29.83F
6HR MIN TEMP:  64; 6HR MAX TEMP:  68;

SHEBOYGAN      MOSUNNY   64  51  62 SW9       29.84S
6HR MIN TEMP:  63; 6HR MAX TEMP:  69;

WEST BEND      CLOUDY    61  52  72 W3        29.85S
JUNEAU         MOSUNNY   62  53  70 SW5       29.86F
6HR MIN TEMP:  56; 6HR MAX TEMP:  63;

$$

LSZ147-162-230100-
LAKE SUPERIOR

STATION/POSITION TIME  TEMP    WIND        PRES    WAVE
                       AIR SEA DIR/SP/G            HT/PER
                 (UTC) (F)     (DEG/KT/KT) (MB)    (FT/S)
W MID LAKE BUOY  2350   41 37  230/  8/ 10 1009.5R   2/ 4
DEVILS ISLAND    0000   49     220/ 11/ 13 1009.4S
SAXON HARBOR     2340   55     240/  4/  7 1009.5S
$$

LMZ867-665-643>646-230100-
LAKE MICHIGAN

STATION/POSITION TIME  TEMP    WIND        PRES    WAVE
                       AIR SEA DIR/SP/G            HT/PER
                 (UTC) (F)     (DEG/KT/KT) (MB)    (FT/S)
CHAMBERS ISLAND  2340   51     340/  6/  7 1009.5R
N MID LAKE BUOY  2250   45 39  180/ 17/ 19 1009.9F   4/ 5
NORTHPORT PIER   2340   50      CALM  /  2 1010.2R
SISTER BAY



USA.gov is the U.S. government's official web portal to all federal, state and local government web resources and services.